Regional Weather Roundup
Issued by NWS

Home | Current Version | Previous Version | Graphics & Text | Print | Product List | Glossary On
Versions: 1 2 3 4 5 6 7 8 9 10 11 12 13 14 15 16 17 18 19 20 21 22 23 24 25 26 27 28 29 30 31 32 33 34 35 36 37 38 39 40 41 42 43 44 45 46 47 48 49 50
000
ASUS45 KSLC 290110
RWRUT

UTAH REGIONAL WEATHER ROUNDUP
NATIONAL WEATHER SERVICE SALT LAKE CITY UT
700 PM MDT MON JUL 28 2014

UTZ001>011-023>025-290200-

NORTHERN UTAH

CITY           SKY/WX    TMP DP  RH WIND       PRES   REMARKS
HILL AFB       PTSUNNY   71  57  60 SE14G23   30.23R
LOGAN          MOSUNNY   76  56  49 S20       30.19S
OGDEN          CLOUDY    77  52  41 S25G36    30.18S
PROVO AIRPORT  PTSUNNY   72  63  73 VRB5      30.24F
SALT LAKE CITY LGT RAIN  68  64  87 SE12      30.23F
VERNAL         CLOUDY    77  53  43 S13       30.25R
WENDOVER       CLOUDY    84  48  28 NW23G31   30.13S
HEBER CITY     LGT RAIN  66  59  77 CALM      30.32F
WEST JORDAN    CLOUDY    68  68 100 CALM      30.27F

$$

UTZ012>022-026-027-290200-

SOUTHERN UTAH

CITY           SKY/WX    TMP DP  RH WIND       PRES   REMARKS
BRYCE CANYON   CLOUDY    63  54  72 NW12      30.41F
CEDAR CITY     CLOUDY    75  48  38 SW14      30.26R
MILFORD        CLOUDY    86  50  28 S18       30.18S
MOAB/CYNLANDS  MOSUNNY   86  50  28 SE8       30.13F
PRICE          CLOUDY    70  57  63 N10       30.30S
ST GEORGE      CLOUDY    86  52  30 S23       30.07F THUNDER
KANAB            N/A     72  55  56 S7        30.26F

$$

REGIONAL REPORTS     COLORADO/ARIZONA

CITY           SKY/WX    TMP DP  RH WIND       PRES   REMARKS
CRAIG, CO      CLOUDY    69  49  48 W18G24    30.27S
GRAND JUNCTION CLOUDY    81  53  37 W6        30.18S
RIFLE          LGT RAIN  70  54  56 E18G25    30.30R
MONTROSE       PTSUNNY   83  49  30 N5        30.26S
CORTEZ         CLOUDY    73  56  54 E17       30.32R
PAGE, AZ       CLOUDY    87  50  27 VRB3      30.16R
GRAND CANYON   PTSUNNY   73  49  42 NW6       30.37F
KINGMAN        PTSUNNY   88  58  36 NE6       30.13R
FLAGSTAFF      CLOUDY    68  51  54 SW3       30.39F

$$

REGIONAL REPORTS    NEVADA/IDAHO/WYOMING

CITY           SKY/WX    TMP DP  RH WIND       PRES   REMARKS
LAS VEGAS, NV  LGT RAIN  86  62  44 S12       30.00R
ELY            LGT RAIN  68  54  60 NW12      30.34S
ELKO           CLOUDY    78  48  34 S6        30.23R
POCATELLO, ID  SUNNY     81  44  27 N9        30.15S
BURLEY         PTSUNNY   84  49  29 E5        30.11F
EVANSTON, WY   CLOUDY    61  54  77 SW21      30.38F
ROCK SPRINGS   CLOUDY    82  35  18 W7        30.27S

$$


USA.gov is the U.S. government's official web portal to all federal, state and local government web resources and services.